Franklin, PA

7:27 AM EST on November 19, 2019 (GMT -0500)
Venango Regional

Weather History for KFKL - October, 2019

Change the Weather History Date:

Friday, October 18, 2019

  Actual Average Record
Temperature  
Mean Temperature 42 °F -  
Max Temperature 51 °F 59 °F 83 °F (1938)
Min Temperature 33 °F 38 °F 25 °F (1937)
Degree Days  
Heating Degree Days 24    
Moisture  
Dew Point 38 °F    
Average Humidity 89    
Maximum Humidity 100    
Minimum Humidity 66    
Precipitation  
Precipitation 0.01 in - - ()
Sea Level Pressure  
Sea Level Pressure 30.04 in    
Wind  
Wind Speed 5 mph (WNW)    
Max Wind Speed 9 mph    
Max Gust Speed 20 mph    
Visibility 8 miles    
Events Fog , Rain    
Averages and records for this station are not official NWS values.
T = Trace of Precipitation, MM = Missing Value Source: NWS Daily Summary

Daily Weather History Graph

Daily Weather History Graph

Search for Another Location

Airport or City:

Astronomy

Oct. 18, 2019 Rise Set
Actual Time 7:34 AM EDT 6:34 PM EDT
Civil Twilight 7:06 AM EDT 7:02 PM EDT
Nautical Twilight 6:34 AM EDT 7:34 PM EDT
Astronomical Twilight 6:02 AM EDT 8:06 PM EDT
Moon 9:46 PM EDT (10/18) 12:08 PM EDT (10/18)
Length of Visible Light 11h 55m
Length of Day
10h 59m
Waning Gibbous, 79% of the Moon is Illuminated
Oct 18
Waning Gibbous
Oct 21
Last Quarter
Oct 27
New
Nov 4
First Quarter
Nov 12
Full

Hourly Weather History & Observations

Time (EDT) Temp. Windchill Dew Point Humidity Pressure Visibility Wind Dir Wind Speed Gust Speed Precip Events Conditions
12:56 AM 39.9 °F 36.7 °F 37.9 °F 93% 29.95 in 10.0 mi WNW 4.6 mph - 0.00 in   Overcast
1:56 AM 39.9 °F 37.8 °F 37.9 °F 93% 29.96 in 10.0 mi WNW 3.5 mph - 0.00 in   Overcast
2:14 AM 39.2 °F 35.9 °F 37.4 °F 93% 29.92 in 10.0 mi WNW 4.6 mph - 0.00 in   Overcast
2:24 AM 39.2 °F 35.0 °F 37.4 °F 93% 29.92 in 10.0 mi West 5.8 mph - 0.00 in   Overcast
2:46 AM 39.2 °F 35.9 °F 37.4 °F 93% 29.93 in 10.0 mi West 4.6 mph - 0.00 in   Overcast
2:56 AM 39.9 °F 35.1 °F 37.9 °F 93% 29.96 in 10.0 mi WNW 6.9 mph - 0.00 in   Overcast
3:07 AM 41.0 °F 35.2 °F 37.4 °F 87% 29.93 in 10.0 mi NW 9.2 mph 19.6 mph 0.00 in Rain Light Rain
3:56 AM 39.9 °F 35.1 °F 37.9 °F 93% 29.98 in 10.0 mi West 6.9 mph - 0.00 in   Overcast
4:56 AM 39.0 °F 34.0 °F 37.0 °F 93% 29.99 in 10.0 mi West 6.9 mph - 0.01 in   Scattered Clouds
5:56 AM 37.9 °F 34.4 °F 37.0 °F 97% 30.01 in 10.0 mi WNW 4.6 mph - N/A   Mostly Cloudy
6:56 AM 39.0 °F 36.8 °F 37.0 °F 93% 30.02 in 10.0 mi Variable 3.5 mph - N/A   Overcast
7:56 AM 37.9 °F 34.4 °F 37.0 °F 97% 30.04 in 10.0 mi West 4.6 mph - N/A   Mostly Cloudy
8:19 AM 39.2 °F 35.0 °F 37.4 °F 93% 30.01 in 10.0 mi West 5.8 mph - 0.00 in Rain Light Rain
8:29 AM 39.2 °F 35.9 °F 39.2 °F 100% 30.01 in 10.0 mi West 4.6 mph - 0.00 in   Overcast
8:40 AM 39.2 °F 35.0 °F 39.2 °F 100% 30.02 in 10.0 mi West 5.8 mph - 0.00 in   Overcast
8:56 AM 41.0 °F 37.1 °F 39.0 °F 93% 30.06 in 10.0 mi WNW 5.8 mph - 0.00 in   Overcast
9:21 AM 42.8 °F 37.5 °F 39.2 °F 87% 30.03 in 10.0 mi West 9.2 mph - N/A   Overcast
9:30 AM 42.8 °F 38.6 °F 39.2 °F 87% 30.03 in 10.0 mi West 6.9 mph - N/A   Mostly Cloudy
9:39 AM 42.8 °F 39.3 °F 39.2 °F 87% 30.03 in 10.0 mi West 5.8 mph - N/A   Overcast
9:56 AM 44.1 °F 39.0 °F 42.1 °F 93% 30.06 in 10.0 mi West 9.2 mph - N/A   Overcast
10:54 AM 46.4 °F 42.9 °F 42.8 °F 87% 30.05 in 10.0 mi WNW 6.9 mph - N/A   Overcast
10:56 AM 46.0 °F 41.4 °F 42.1 °F 86% 30.08 in 10.0 mi West 9.2 mph - N/A   Overcast
11:56 AM 45.0 °F 41.2 °F 41.0 °F 86% 30.08 in 10.0 mi West 6.9 mph - 0.00 in   Overcast
12:51 PM 44.6 °F 40.7 °F 39.2 °F 81% 30.05 in 10.0 mi WNW 6.9 mph - N/A   Overcast
12:56 PM 45.0 °F 41.8 °F 41.0 °F 86% 30.08 in 10.0 mi Variable 5.8 mph - N/A   Overcast
1:56 PM 46.9 °F - 39.9 °F 77% 30.08 in 10.0 mi Variable 5.8 mph - N/A   Overcast
2:21 PM 48.2 °F - 41.0 °F 76% 30.05 in 10.0 mi Variable 3.5 mph - N/A   Overcast
2:56 PM 48.0 °F - 39.9 °F 74% - 10.0 mi WNW 8.1 mph - N/A   Overcast
3:06 PM 48.2 °F - 39.2 °F 71% 30.04 in 10.0 mi West 8.1 mph - N/A   Overcast
3:18 PM 48.2 °F - 39.2 °F 71% 30.05 in 10.0 mi Variable 6.9 mph - N/A   Overcast
3:56 PM 50.0 °F - 39.0 °F 66% 30.07 in 10.0 mi West 8.1 mph - N/A   Overcast
4:56 PM 48.0 °F - 37.9 °F 68% 30.07 in 10.0 mi NW 3.5 mph - N/A   Mostly Cloudy
5:07 PM 48.2 °F - 39.2 °F 71% 30.05 in 10.0 mi NNW 3.5 mph - N/A   Mostly Cloudy
5:36 PM 48.2 °F - 39.2 °F 71% 30.04 in 10.0 mi West 5.8 mph - N/A   Mostly Cloudy
5:56 PM 46.9 °F - 37.9 °F 71% 30.07 in 10.0 mi WSW 5.8 mph - N/A   Partly Cloudy
6:56 PM 43.0 °F 41.3 °F 37.9 °F 82% 30.08 in 10.0 mi West 3.5 mph - N/A   Clear
7:56 PM 42.1 °F 40.2 °F 37.9 °F 85% 30.09 in 10.0 mi West 3.5 mph - N/A   Clear
8:56 PM 39.9 °F - 37.9 °F 93% 30.09 in 10.0 mi Calm Calm - N/A   Clear
9:56 PM 37.0 °F 34.5 °F 37.0 °F 100% 30.10 in 10.0 mi North 3.5 mph - N/A   Clear
10:14 PM 37.4 °F 34.9 °F 35.6 °F 93% 30.07 in 1.5 mi NNE 3.5 mph - N/A   Clear
10:17 PM 37.4 °F - 35.6 °F 93% 30.07 in 1.0 mi Calm Calm - N/A   Mist
10:21 PM 35.6 °F - 35.6 °F 100% 30.07 in 0.5 mi Calm Calm - N/A Fog Fog
10:33 PM 35.6 °F - 35.6 °F 100% 30.07 in 1.0 mi Calm Calm - N/A   Mist
10:36 PM 35.6 °F - 35.6 °F 100% 30.07 in 2.5 mi Calm Calm - N/A   Scattered Clouds
10:43 PM 35.6 °F - 35.6 °F 100% 30.07 in 9.0 mi Calm Calm - N/A   Scattered Clouds
10:56 PM 35.1 °F - 35.1 °F 100% 30.10 in 10.0 mi Calm Calm - N/A   Clear
11:14 PM 35.6 °F - 33.8 °F 93% 30.07 in 2.5 mi Calm Calm - N/A   Partly Cloudy
11:16 PM 33.8 °F - 33.8 °F 100% 30.07 in 1.0 mi Calm Calm - N/A   Mist
11:19 PM 33.8 °F - 33.8 °F 100% 30.07 in 0.5 mi Calm Calm - N/A Fog Fog
11:46 PM 33.8 °F 30.8 °F 33.8 °F 100% 30.07 in 0.2 mi East 3.5 mph - N/A Fog Fog
11:56 PM 33.1 °F - 33.1 °F 100% 30.11 in 0.2 mi Calm Calm - N/A Fog Fog